Back to catalog

STARLINK-3005

AliveCommunicationsSSO
NORAD 48881·PAYLOAD·🇺🇸 United States

Launched Jun 30, 2021 from Cape Canaveral Space Force Station

Loading…

Next Passes (next 24 hours)

TLE

FreshSource: CelesTrak SupGP

Epoch: Sep 14, 2026, 14:13 UTC

1 48881C 21059C   26257.59284722  .00002916  00000+0  22757-3 0  2577
2 48881  97.2841  18.2950 0000404 124.7501 331.8154 15.01242451    16

Track STARLINK-3005 in real time with AllMySat

Download on the App Store